AirNav   Phillips 66 Aviation Fuel
 
 1082 users online  

KWEA Parker County Airport
Weatherford, Texas, USA

GOING TO WEATHERFORD?


FAA INFORMATION EFFECTIVE 08 NOVEMBER 2018

Location

FAA Identifier: WEA
Lat/Long: 32-44-46.6321N / 097-40-56.8279W
32-44.777202N / 097-40.947132W
32.7462867 / -97.6824522
(estimated)
Elevation: 991.2 ft. / 302.1 m (surveyed)
Variation: 05E (2010)
From city: 5 miles E of WEATHERFORD, TX
Time zone: UTC -6 (UTC -5 during Daylight Saving Time)
Zip code: 76087

Airport Operations

Airport use: Open to the public
Activation date: 01/1961
Control tower: no
ARTCC: FORT WORTH CENTER
FSS: FORT WORTH FLIGHT SERVICE STATION
NOTAMs facility: FTW (NOTAM-D service available)
Attendance: 0800-1800
Wind indicator: lighted
Segmented circle: no
Lights: SS-SR

Airport Communications

CTAF/UNICOM: 122.7
REGIONAL APPROACH: 135.975
REGIONAL DEPARTURE: 135.975
DODJE STAR: 125.2 125.9
LIKES STAR: 125.8(SOUTH) 135.975(NORTH)
MOTZA STAR: 118.1(SOUTH) 125.8(NORTH)
REEKO STAR: 125.2
SANGR STAR: 124.3
SASIE STAR: 124.3
SLUGG STAR: 125.8(SOUTH) 135.975(NORTH)
WESAT STAR: 118.1(SOUTH) 125.8(NORTH)
WX ASOS at FTW (17 nm E): PHONE 817-740-3346
WX ASOS at MWL (19 nm W): 135.075 (940-325-2457)
WX AWOS-3 at GDJ (19 nm S): 118.925 (817-573-7514)

Nearby radio navigation aids

VOR radial/distance  VOR name  Freq  Var
MQPr077/15.9MILLSAP VORTAC117.7009E
FUZr245/26.8RANGER VORTAC115.7006E
TTTr251/33.2MAVERICK VOR/DME113.1006E
JENr010/36.6GLEN ROSE VORTAC115.0006E

Airport Services

Fuel available: 100LL
FUEL AVBL 24 HRS SELF SERVE.
Parking: hangars and tiedowns
Bottled oxygen: NONE
Bulk oxygen: NONE

Runway Information

Runway 17/35

Dimensions: 2892 x 40 ft. / 881 x 12 m
Surface: asphalt, in good condition
Weight bearing capacity: 
Single wheel: 7.5
Runway edge lights: low intensity
RY 17/35 NSTD DSPLCD THLD LIGHTS.
Gradient: ESTIMATED.
Operational restrictions: RESTRICTED TO ACFT 7500 LBS OR LESS.
RUNWAY 17  RUNWAY 35
Latitude: 32-45.015632N32-44.538772N
Longitude: 097-40.945290W097-40.948973W
Elevation: 988.6 ft.982.6 ft.
Gradient: 0.2%0.2%
Traffic pattern: leftleft
Runway heading: 175 magnetic, 180 true355 magnetic, 000 true
Displaced threshold: 220 ft.
ARROWS ONLY 8 FT LONG. MARKINGS FADED.
no
Markings: basic, in good conditionbasic, in good condition
Touchdown point: yes, no lightsyes, no lights
Obstructions: 38 ft. tree, 515 ft. from runway, 55 ft. left of centerline, 8:1 slope to clear
+5 FT FENCE 40 FT FM THLD 120 FT R OF CNTRLN; 20 FT DROP-OFF 10 FT FROM THLD 0B.
38 ft. trees, 380 ft. from runway, 125 ft. right of centerline, 4:1 slope to clear
APCH SLOPE 21:1 AT DSPLCD THLD DUE TO 38 FT TREE 820 FT FM THLD 125 FT R OF CNTRLN.

Airport Ownership and Management from official FAA records

Ownership: Privately-owned
Owner: PARKER COUNTY AIRPORT HANGARS ASSOC
3816 E. I-20
HUDSON OAKS, TX 76087
Phone 817-599-9210
Manager: BRET PRIVITT
4607 FOREST HILL CIRCLE
FORT WORTH, TX 76140
Phone (817) 599-9210

Airport Operational Statistics

Aircraft based on the field: 63
Single engine airplanes: 59
Multi engine airplanes: 4
    
Aircraft operations: avg 69/day *
75% local general aviation
25% transient general aviation
<1% military
* for 12-month period ending 28 April 2016

Additional Remarks

FOR CD CTC REGIONAL APCH AT 972-615-2799.
WILDLIFE INVOF APRT.
TWY ON WEST SIDE OF RWY CLSD TO PUBLIC INDEFLY.
ARPT CLSD TO TRANSIENT STUDENT TFC.
CLOSED TO ULTRALIGHT TRAFFIC.

Instrument Procedures

NOTE: All procedures below are presented as PDF files. If you need a reader for these files, you should download the free Adobe Reader.

NOT FOR NAVIGATION. Please procure official charts for flight.
FAA instrument procedures published for use from 8 November 2018 at 0901Z to 6 December 2018 at 0900Z.

 
STARs - Standard Terminal Arrivals
LIKES THREE (RNAV)   download (195KB)
MOTZA EIGHT   2 pages: [1] [2] (500KB)
REEKO THREE (RNAV)   download (199KB)
SASIE FIVE   2 pages: [1] [2] (490KB)
TRUUK TWO (RNAV)   download (197KB)
WESAT TWO (RNAV)   download (192KB)
 
IAPs - Instrument Approach Procedures
VOR/DME-A   download (134KB)
 
Departure Procedures
GARLAND SIX   2 pages: [1] [2] (332KB)
HUBBARD NINE   2 pages: [1] [2] (320KB)
KINGDOM FOUR   2 pages: [1] [2] (356KB)
KUSSO FIVE (RNAV)   2 pages: [1] [2] (269KB)
SWABR FIVE (RNAV)   2 pages: [1] [2] (269KB)
NOTE: Special Take-Off Minimums/Departure Procedures apply   download (113KB)

Other nearby airports with instrument procedures:

50F - Bourland Field Airport (11 nm SE)
KNFW - Fort Worth Naval Air Station JRB (Carswell Field) Airport (12 nm E)
KFTW - Fort Worth Meacham International Airport (17 nm E)
4T2 - Kenneth Copeland Airport (17 nm NE)
KMWL - Mineral Wells Airport (19 nm W)
KGDJ - Granbury Regional Airport (19 nm S)
 
Loc | Ops | Rwys | IFR | FBO | Links
Com | Nav | Svcs | Stats | Notes


 
Area around KWEA (Parker County Airport)
 
Road maps at: MapQuest Bing Google
 
Aerial photo
WARNING: Photo may not be current or correct
Aerial photo of KWEA (Parker County Airport)
Photo by Kim Fuller
Photo taken 06-Apr-2017
looking south.

Do you have a better or more recent aerial photo of Parker County Airport that you would like to share? If so, please send us your photo.

 
Sectional chart

 
Airport distance calculator
Flying to Parker County Airport? Find the distance to fly.

From to KWEA

Sunrise and sunset
Times for 12-Nov-2018
 Local
(UTC-6)
 Zulu
(UTC)
Morning civil twilight06:3312:33
Sunrise06:5912:59
Sunset17:3123:31
Evening civil twilight17:5723:57

Current date and time
Zulu (UTC)  12-Nov-2018 23:34:21
Local (UTC-6)  12-Nov-2018 17:34:21
 
METAR
KNFW 
12nm E 
122152Z 35018G26KT 10SM OVC017 04/00 A3032 RMK AO2 PK WND 32032/2122 SLP247 T00390000 $
KFTW 
17nm E 
122253Z 33016G25KT 10SM OVC015 02/M01 A3032 RMK AO2 PK WND 33031/2156 SLP270 T00221011
KGDJ 
19nm S 
AWOS-3 118.925 817-573-7514
122315Z AUTO 32015G24KT 10SM OVC016 03/00 A3037 RMK AO2 T00281004
KMWL 
20nm W 
122253Z AUTO 34020G29KT 10SM OVC016 01/M03 A3036 RMK AO2 PK WND 33029/2245 SLP282 T00111028
KFWS 
22nm SE 
122257Z 34017G24KT 7SM OVC016 03/00 A3033
KAFW 
23nm NE 
122253Z 35020G27KT 10SM OVC017 03/M01 A3033 RMK AO2 PK WND 33030/2159 SLP277 T00281011
TAF
KNFW 
12nm E 
1215/1315 35018KT 4800 -RA BR VCSH BKN005 BKN010 OVC015 QNH3016INS BECMG 1218/1220 34020G30KT 9999 NSW SCT010 BKN018 OVC025 QNH3020INS BECMG 1303/1305 34020G30KT SCT020 BKN030 OVC035 QNH3025INS T07/1215Z T00/1312Z COR 1525 FN00197
KFTW 
17nm E 
122109Z 1221/1318 34022G32KT P6SM OVC015 FM130000 34022G32KT P6SM OVC022 FM130600 34018G28KT P6SM BKN035 FM131400 34017KT P6SM SKC
NOTAMs
Click for the latest NOTAMs
NOTAMs are issued by the DoD/FAA and will open in a separate window not controlled by AirNav.

 

 
 

FBO, Fuel Providers, and Aircraft Ground Support

  
 Business Name 
 
 Contact 
 
 Services / Description 
 
Fuel Prices
 
Comments
  
Chief Aero, LLC 817-599-9210
682-249-1755
[web site]
[email]
Airport management, Aviation fuel, Aircraft parking (ramp or tiedown), Hangars, Hangar leasing / sales, Pilots lounge / snooze room, Restrooms

More info about Chief Aero, LLC
Shell
100LL
SS $4.30 
 Updated 30-Oct-2018
 
   3 read write
SS=Self service
Update Fuel Prices
 

Would you like to see your business listed on this page?

 If your business provides an interesting product or service to pilots, flight crews, aircraft, or users of the Parker County Airport, you should consider listing it here.  To start the listing process, click on the button below
 
Add a business
 

Other Pages about Parker County Airport

www.parkercountyairport.com
 
Update a link
 
Copyright © AirNav, LLC. All rights reserved. Privacy Policy  Contact